Regional Weather Roundup
Issued by NWS Charleston, SC

Current Version | Previous Version | Graphics & Text | Print | Product List | Glossary On
Versions: 1 2 3 4 5 6 7 8 9 10 11 12 13 14 15 16 17 18 19 20 21 22 23 24 25 26 27 28 29 30 31 32 33 34 35 36 37 38 39 40 41 42 43 44 45 46 47 48 49 50
805
ASUS42 KCHS 060128
RWRCHS

REGIONAL WEATHER ROUNDUP
NATIONAL WEATHER SERVICE CHARLESTON SC
900 PM EDT THU MAY 05 2016

NOTE: "FAIR" INDICATES FEW OR NO CLOUDS BELOW 12,000 FEET WITH NO
SIGNIFICANT WEATHER AND/OR OBSTRUCTIONS TO VISIBILITY.

NOT ALL STATIONS ARE QUALITY CONTROLLED. USE DATA WITH CAUTION...
ESPECIALLY DEWPOINT OBSERVATIONS.

SCZ027-030-031-034>040-042>050-060200-
...SOUTHEAST SOUTH CAROLINA...

CITY           SKY/WX    TMP DP  RH WIND       PRES   REMARKS
N CHARLESTON   PTCLDY    60  39  45 NW9       29.72R
WATERFRONT PRK   N/A     63  42  46 NW7       29.70R
MOUNT PLEASANT FAIR      61  39  44 W7        29.72R
JOHNS ISLAND   FAIR      61  41  48 W12       29.73R
PINOPOLIS        N/A     63  45  51 W15       29.62R
MONCKS CORNER  FAIR      54  36  50 W3        29.72R
SUMMERVILLE    FAIR      55  45  67 W7        29.74R
BEAUFORT MCAS  PTCLDY    62  41  46 NW15      29.75R
BEAUFORT ARPT  MOCLDY    63  39  42 NW13      29.75R
HILTON HEAD IS CLEAR     64  41  42 N9G23     29.77R
WALTERBORO     PTCLDY    61  41  48 W9        29.74S
ALLENDALE      FAIR      54  46  76 CALM      29.74S

...SOUTHERN MIDLANDS AND PEE DEE...

CITY           SKY/WX    TMP DP  RH WIND       PRES   REMARKS
GEORGETOWN     FAIR      50  46  87 W3        29.72R
KINGSTREE      MOCLDY    54  48  82 CALM      29.70R
ORANGEBURG     CLOUDY    57  42  57 W8        29.72R
BARNWELL       FAIR      55  46  71 CALM      29.75R
AIKEN          FAIR      50  43  76 SW6       29.77R
MANNING        FAIR      55  41  58 SW3       29.70R
COLUMBIA       MOCLDY    60  43  53 W10       29.70R
SUMTER         LGT RAIN  57  45  62 N15       29.69R
FLORENCE       PTCLDY    53  47  79 N6        29.70R
MYRTLE BEACH   CLEAR     57  45  62 NW10      29.69R
N MYRTLE BEACH MOCLDY    55  48  77 CALM      29.67R

$$

GAZ063-065-086>088-099>101-113>116-118-119-134>141-150-060200-
...SOUTHEAST GEORGIA...

CITY           SKY/WX    TMP DP  RH WIND       PRES   REMARKS
SAVANNAH ARPT  MOCLDY    62  38  40 NW13      29.76R
HUNTER AAF     MOCLDY    64  41  42 NW13      29.74R
FORT STEWART   MOCLDY    63  40  43 N15       29.75R
STATESBORO     CLOUDY    60  48  63 W8        29.77F
SYLVANIA       PTCLDY    58  46  63 W5        29.76F
CLAXTON        MOCLDY    59  47  64 W10G16    29.79S

...CSRA...CENTRAL AND FAR SOUTHEAST GEORGIA...

CITY           SKY/WX    TMP DP  RH WIND       PRES   REMARKS
THOMSON        CLEAR     52  50  95 W3        29.82R
AUGUSTA-BUSH   CLEAR     54  45  71 W12       29.75R
AUGUSTA-DANIEL CLEAR     55  44  66 W3        29.75R
SWAINSBORO     MOCLDY    54  46  76 W5        29.79S
VIDALIA        CLOUDY    55  45  67 N6        29.79S
EASTMAN        FAIR      55  47  76 CALM      29.85R
HAZLEHURST     MOCLDY    58  45  61 N8        29.80R
ALMA           CLEAR     63  40  42 W5        29.77R
WAYCROSS       CLEAR     61  42  48 W3        29.78R
JESUP          MOCLDY    61  46  59 CALM      29.77S
BAXLEY         MOCLDY    61  43  51 N10       29.79R
BRUNSWICK      CLEAR     64  46  52 CALM      29.78R
SAINT SIMONS   CLEAR     66  40  38 W6        29.77R

$$

SCZ027-028-034-036>038-045-046-048>050-GAZ119-141-060200-
...LAKE AND SUPPLEMENTAL COASTAL OBSERVATIONS...

STATION/POSITION TIME  TEMP    WIND        PRES    WAVE   SWELL
                       AIR SEA DIR/SP/G            HT/PER HT/PER/DIR
                 (UTC) (F)     (DEG/KT/KT) (MB)    (FT/S) (FT/S/D)
WINYAH BAY       0000   57     340/  4     1004.0R
LAKE MURRAY      0000   61     290/  6/ 10 1005.1R
ACE BASIN NERRS  0000   63     330/  4     1006.0R
FORT PULASKI     0100   64 72              1007.8R
SAPELO ISLAND    0100   67     280/  8     1008.0R

$$

ANZ835-935-AMZ111-154-330-350-352-354-370-450-454-472-060200-
...C-MAN AND BUOY OBSERVATIONS...

STATION/POSITION TIME  TEMP    WIND        PRES    WAVE   SWELL
                       AIR SEA DIR/SP/G            HT/PER HT/PER/DIR
                 (UTC) (F)     (DEG/KT/KT) (MB)    (FT/S) (FT/S/D)
BUOY 41004       0050   67 74  310/ 19/ 23 1004.7R   5/ 5
BUOY 41008       NOT AVBL
FOLLY BEACH CMAN 0100   63     280/  7/ 13 1006.5R
CAPERS NEARSHORE 0008   66 70  320/ 16/ 21 1004.3R
FRIPP NEARSHORE  0108   65 69  330/ 19/ 25 1006.1R


STATION/POSITION TIME  TEMP    WIND        PRES    WAVE   SWELL
                       AIR SEA DIR/SP/G            HT/PER HT/PER/DIR
                 (UTC) (F)     (DEG/KT/KT) (MB)    (FT/S) (FT/S/D)
5E ST. MARYS GA  0021      71                N/A     3/ 3
FRYING PAN BUOY  0100   64 72  300/ 21/ 25 1003.8R
BUOY 41025       0050   57 76   10/ 21/ 25 1001.0R   5/ 8   2/360/16
CAPE LOOKOUT NC  0100   57     350/ 11/ 12 1002.6R
BUOY 41002       0050   71 74  260/ 21/ 27 1004.0R  10/ 8   2/320/15
BUOY 41010       0020   74 78  280/ 10/ 16 1006.8R
ST AUGUSTINE FL  0100   69 71  310/  8/ 10 1008.9R


$$




USA.gov is the U.S. government's official web portal to all federal, state and local government web resources and services.